Miscellaneous Local Product
Issued by NWS Hastings, NE

Home | Current Version | Previous Version | Text Only | Print | Product List | Glossary Off
Versions: 1 2 3 4 5 6 7 8 9 10 11 12 13 14 15 16 17 18 19 20 21 22 23 24 25 26 27 28 29 30 31 32 33 34 35 36 37 38 39 40 41 42 43 44 45 46 47 48 49 50

000
AXUS43 KGID 040602
MISGRI

GID CWA HOURLY WEATHER ROUNDUP
NATIONAL WEATHER SERVICE HASTINGS NE
1200 AM CST SUN DEC 04 2016

NOTE: "FAIR" INDICATES FEW OR NO CLOUDS BELOW 12,000 FEET WITH NO
SIGNIFICANT WEATHER AND/OR OBSTRUCTIONS TO VISIBILITY.

...SOUTH CENTRAL NEBRASKA...

CITY           SKY/WX    TMP DP  RH WIND       PRES   REMARKS
GRAND ISLAND   CLOUDY    32  32 100 SW10      30.03F WCI  24
HASTINGS       CLOUDY    32  31  96 SW8       30.04F WCI  25
KEARNEY        CLOUDY    32  28  86 SW8       30.02F WCI  25
ORD            CLOUDY    33  29  85 SW10      29.98F WCI  25
YORK           CLOUDY    32  32 100 CALM      30.04F
AURORA         CLOUDY    32  32 100 W8        30.03S WCI  25
LEXINGTON      CLOUDY    33  32  94 W7        30.00F WCI  27
HOLDREGE       FOG       32  31  96 SW8       30.02S VSB 3/4 WCI  24
HEBRON         CLOUDY    32  32  99 CALM      30.06S

...NEBRASKA PANHANDLE...

CITY           SKY/WX    TMP DP  RH WIND       PRES   REMARKS
CHADRON        CLOUDY    27  17  66 SW10      29.98S WCI  17
ALLIANCE       PTCLDY    20  12  71 W9        29.97S WCI   9
SCOTTSBLUFF    PTCLDY    23  13  65 NW6       30.01R WCI  16
SIDNEY         PTCLDY    25  15  66 W12       30.01S WCI  14

...WESTERN AND NORTH CENTRAL NEBRASKA...

CITY           SKY/WX    TMP DP  RH WIND       PRES   REMARKS
VALENTINE      CLOUDY    27  20  75 SW9       29.93F WCI  18
AINSWORTH      CLEAR     26  19  74 SW6       29.94F WCI  19
ONEILL         PTCLDY    34  32  92 SW9       29.96S WCI  27
BROKEN BOW     MOCLDY    32  30  92 SW6       29.98S WCI  26
IMPERIAL       CLOUDY    28  15  58 W9        30.02S WCI  19
NORTH PLATTE   MOCLDY    28  26  92 S3        30.00S
MCCOOK         CLEAR     30  28  92 W12       30.02S WCI  20

...EASTERN NEBRASKA...

CITY           SKY/WX    TMP DP  RH WIND       PRES   REMARKS
NORFOLK        CLOUDY    32  30  92 S10       30.00F WCI  24
SO SIOUX CITY  CLOUDY    35  33  92 S13       30.04F WCI  26
TEKAMAH        CLOUDY    33  31  92 SE7       30.05F FOG     WCI  27
COLUMBUS       CLOUDY    34  30  86 S6        30.03F WCI  29
ALBION         CLOUDY    32  32  99 S8        30.00F FOG     WCI  25
OMAHA EPPLEY   LGT RAIN  33  29  85 SE5       30.05F VSB 1   WCI  29
MILLARD        LGT RAIN  33  32  96 CALM      30.05F
LINCOLN        LGT SNOW  32  32 100 CALM      30.06F VSB 3/4
NEBRASKA CITY  LGT RAIN  37  37 100 SW6       30.06F WCI  32
BEATRICE       LGT RAIN  34  34  99 SW5       30.06S WCI  30
FALLS CITY     LGT RAIN  40  38  93 S8        30.07S WCI  34

...NORTHERN KANSAS...

CITY           SKY/WX    TMP DP  RH WIND       PRES   REMARKS
GOODLAND       CLOUDY    25  16  68 W12       30.04R WCI  14
HILL CITY      FOG       33  33 100 W6        30.05F VSB 1   WCI  28
NORTON         CLOUDY    34  30  86 SW7       30.03  FOG     WCI  28
PHILLIPSBURG   FOG       32  32 100 W5        30.05F VSB 1/2 WCI  27
SMITH CENTER   FOG       30  30 100 W5        30.06F VSB 3/4 WCI  25
BELOIT         CLOUDY    32  30  93 CALM      30.06F
HAYS           CLOUDY    32  31  96 NW5       30.05F FOG     WCI  27
RUSSELL        CLOUDY    34  34 100 SW6       30.03F WCI  29
CONCORDIA      LGT RAIN  35  35 100 W7        30.06F WCI  29
SALINA         RAIN      42  40  92 S6        30.07F FOG
TOPEKA         RAIN      40  38  93 CALM      30.10S FOG



USA.gov is the U.S. government's official web portal to all federal, state and local government web resources and services.